Year,Month,Day,Hour,Minute,Value (Times are PST for barometer in hPa)
2008,01,17,12,05,1033.19
2008,01,17,12,06,1033.19
2008,01,17,12,07,1033.15
2008,01,17,12,08,1033.12
2008,01,17,12,09,1032.95
2008,01,17,12,10,1032.95
2008,01,17,12,11,1032.78
2008,01,17,12,12,1032.78
2008,01,17,12,13,1032.78
2008,01,17,12,14,1032.78
2008,01,17,12,15,1032.78
2008,01,17,12,16,1032.78
2008,01,17,12,17,1032.78
2008,01,17,12,18,1032.78
2008,01,17,12,19,1036.07
2008,01,17,12,20,1036.03
2008,01,17,12,21,1036.00
2008,01,17,12,22,1035.96
2008,01,17,12,23,1035.93
2008,01,17,12,24,1035.96
2008,01,17,12,25,1035.93
2008,01,17,12,26,1035.93
2008,01,17,12,27,1035.93
2008,01,17,12,28,1035.93
2008,01,17,12,29,1035.93
2008,01,17,12,30,1035.93
2008,01,17,12,31,1035.93
2008,01,17,12,32,1035.93
2008,01,17,12,33,1035.93
2008,01,17,12,34,1035.93
2008,01,17,12,35,1035.93
2008,01,17,12,36,1035.93
2008,01,17,12,37,1035.93
2008,01,17,12,38,1035.93
2008,01,17,12,39,1035.93
2008,01,17,12,40,1035.93
2008,01,17,12,41,1035.96
2008,01,17,12,42,1035.96
2008,01,17,12,43,1036.03
2008,01,17,12,44,1036.12
2008,01,17,12,45,1036.10
2008,01,17,12,46,1036.17
2008,01,17,12,47,1036.17
2008,01,17,12,48,1036.17
2008,01,17,12,49,1036.17
2008,01,17,12,50,1036.17
2008,01,17,12,51,1036.17
2008,01,17,12,58,1036.00
2008,01,17,12,59,1036.00
2008,01,17,13,11,1013.34
2008,01,17,13,12,1013.34
2008,01,17,13,13,1013.34
2008,01,17,13,14,1013.34
2008,01,17,13,15,1013.34
2008,01,17,13,16,1013.34
2008,01,17,13,17,1013.34
2008,01,17,13,18,1013.34
2008,01,17,13,19,1013.34
2008,01,17,13,31,1035.32
2008,01,17,13,32,1035.32
2008,01,17,13,33,1035.32
2008,01,17,13,34,1035.32
2008,01,17,13,35,1035.32
2008,01,17,13,36,1035.32
2008,01,17,13,37,1035.32
2008,01,17,13,38,1035.32
2008,01,17,13,39,1035.32
2008,01,17,13,40,1035.32
2008,01,17,13,41,1035.32
2008,01,17,13,42,1035.32
2008,01,17,13,43,1035.32
2008,01,17,13,44,1035.32
2008,01,17,13,45,1035.32
2008,01,17,13,46,1035.32
2008,01,17,13,47,1035.32
2008,01,17,13,48,1035.32
2008,01,17,13,49,1035.32
2008,01,17,14,45,1004.61
2008,01,17,14,46,1004.61
2008,01,17,14,47,1004.61
2008,01,17,14,48,1004.61
2008,01,17,14,49,1004.61
2008,01,17,14,50,1004.61
2008,01,17,14,51,1004.61
2008,01,17,15,03,1035.19
2008,01,17,15,04,1035.19
2008,01,17,15,05,1035.22
2008,01,17,15,06,1035.29
2008,01,17,15,07,1035.29
2008,01,17,15,08,1035.29
2008,01,17,15,09,1035.29
2008,01,17,15,10,1035.29
2008,01,17,15,11,1035.29
2008,01,17,15,12,1035.29
2008,01,17,15,36,1005.72
2008,01,17,15,37,1005.72
2008,01,17,15,38,1035.80
2008,01,17,15,39,1035.83
2008,01,17,15,40,1035.90
2008,01,17,15,41,1035.93
2008,01,17,15,42,1035.96
2008,01,17,15,43,1035.93
2008,01,17,15,44,1035.96
2008,01,17,15,45,1035.96
2008,01,17,15,46,1035.96
2008,01,17,15,47,1035.96
2008,01,17,15,48,1035.96
2008,01,17,15,49,1035.96
2008,01,17,15,50,1035.96
2008,01,17,15,51,1035.96
2008,01,17,15,52,1035.96
2008,01,17,15,53,1035.96
2008,01,17,16,19,1032.85
2008,01,17,16,20,1032.82
2008,01,17,16,21,1032.88
2008,01,17,16,22,1032.88
2008,01,17,16,23,1032.97
2008,01,17,16,24,1032.98
2008,01,17,16,25,1032.98
2008,01,17,16,26,1032.92
2008,01,17,16,27,1032.98
2008,01,17,16,28,1033.05
2008,01,17,16,29,1033.12
2008,01,17,16,30,1033.12
2008,01,17,16,31,1033.12
2008,01,17,16,32,1033.19
2008,01,17,16,33,1033.29
2008,01,17,16,34,1033.29
2008,01,17,16,35,1033.29
2008,01,17,16,36,1033.32
2008,01,17,16,37,1033.41
2008,01,17,16,38,1033.49
2008,01,17,16,39,1033.46
2008,01,17,16,40,1033.46
2008,01,17,16,41,1033.49
2008,01,17,16,42,1033.53
2008,01,17,16,43,1033.59
2008,01,17,16,44,1033.63
2008,01,17,16,45,1033.63
2008,01,17,16,46,1033.63
2008,01,17,16,47,1033.63
2008,01,17,16,48,1033.63
2008,01,17,16,49,1033.63
2008,01,17,16,50,1033.63
2008,01,17,16,51,1033.63
2008,01,17,16,52,1033.63
2008,01,17,16,53,1033.63
2008,01,17,16,54,1033.75
2008,01,17,16,55,1033.76
2008,01,17,16,56,1033.80
2008,01,17,16,57,1033.83
2008,01,17,16,58,1033.93
2008,01,17,16,59,1033.93
2008,01,17,17,00,1034.07
2008,01,17,17,01,1034.10
2008,01,17,17,02,1034.14
2008,01,17,17,03,1034.27
2008,01,17,17,04,1034.18
2008,01,17,17,05,1034.31
2008,01,17,17,06,1034.31
2008,01,17,17,07,1034.31
2008,01,17,17,08,1034.31
2008,01,17,17,09,1034.31
2008,01,17,17,12,1034.85
2008,01,17,17,13,1034.81
2008,01,17,17,14,1034.95
2008,01,17,17,15,1034.95
2008,01,17,17,16,1035.12
2008,01,17,17,17,1035.19
2008,01,17,17,18,1035.25
2008,01,17,17,19,1035.29
2008,01,17,17,20,1035.29
2008,01,17,17,21,1035.42
2008,01,17,17,22,1035.35
2008,01,17,17,23,1035.41
2008,01,17,17,24,1035.52
2008,01,17,17,25,1035.59
2008,01,17,17,26,1035.59
2008,01,17,17,27,1035.63
2008,01,17,17,28,1035.75
2008,01,17,17,29,1035.80
2008,01,17,17,30,1035.80
2008,01,17,17,31,1035.86
2008,01,17,17,32,1035.90
2008,01,17,17,33,1035.93
2008,01,17,17,34,1035.96
2008,01,17,17,35,1035.96
2008,01,17,17,36,1036.00
2008,01,17,17,37,1036.07
2008,01,17,17,38,1036.10
2008,01,17,17,39,1036.07
2008,01,17,17,40,1036.07
2008,01,17,17,41,1036.17
2008,01,17,17,42,1036.20
2008,01,17,17,43,1036.27
2008,01,17,17,44,1036.34
2008,01,17,17,45,1036.34
2008,01,17,17,46,1036.47
2008,01,17,17,47,1036.54
2008,01,17,17,48,1036.54
2008,01,17,17,49,1036.64
2008,01,17,17,50,1036.68
2008,01,17,17,51,1036.74
2008,01,17,17,52,1036.81
2008,01,17,17,53,1036.84
2008,01,17,17,54,1036.91
2008,01,17,17,55,1037.01
2008,01,17,17,56,1036.98
2008,01,17,17,57,1037.12
2008,01,17,17,58,1037.15
2008,01,17,17,59,1037.25
2008,01,17,18,00,1037.29
2008,01,17,18,01,1037.29
2008,01,17,18,02,1037.32
2008,01,17,18,03,1037.39
2008,01,17,18,04,1037.39
2008,01,17,18,05,1037.39
2008,01,17,18,06,1037.86
2008,01,17,18,07,1037.86
2008,01,17,18,08,1041.31
2008,01,17,18,09,1041.31
2008,01,17,18,10,1041.35
2008,01,17,18,11,1041.38
2008,01,17,18,12,1041.42
2008,01,17,18,13,1041.48
2008,01,17,18,14,1041.52
2008,01,17,18,15,1041.52
2008,01,17,18,16,1041.52
2008,01,17,18,17,1041.52
2008,01,17,18,18,1041.52
2008,01,17,18,19,1041.59
2008,01,17,18,20,1041.65
2008,01,17,18,21,1041.69
2008,01,17,18,22,1041.65
2008,01,17,18,23,1041.69
2008,01,17,18,24,1041.79
2008,01,17,18,25,1041.89
2008,01,17,18,26,1041.92
2008,01,17,18,27,1041.92
2008,01,17,18,28,1041.96
2008,01,17,18,29,1042.06
2008,01,17,18,30,1042.06
2008,01,17,18,31,1042.13
2008,01,17,18,32,1042.20
2008,01,17,18,33,1042.20
2008,01,17,18,34,1042.26
2008,01,17,18,35,1042.33
2008,01,17,18,36,1042.33
2008,01,17,18,37,1042.33
2008,01,17,18,38,1042.40
2008,01,17,18,39,1042.43
2008,01,17,18,40,1042.43
2008,01,17,18,41,1042.47
2008,01,17,18,42,1042.53
2008,01,17,18,43,1042.59
2008,01,17,18,44,1042.60
2008,01,17,18,45,1042.60
2008,01,17,18,46,1042.64
2008,01,17,18,47,1042.70
2008,01,17,18,48,1042.77
2008,01,17,18,49,1042.77
2008,01,17,18,50,1042.77
2008,01,17,18,51,1042.77
2008,01,17,18,52,1042.77
2008,01,17,18,53,1042.80
2008,01,17,18,54,1042.84
2008,01,17,18,55,1042.91
2008,01,17,18,56,1042.94
2008,01,17,18,57,1042.91
2008,01,17,18,58,1042.91
2008,01,17,18,59,1042.91
2008,01,17,19,00,1042.91
2008,01,17,19,01,1042.94
2008,01,17,19,02,1043.04
2008,01,17,19,03,1043.04
2008,01,17,19,04,1043.04
2008,01,17,19,05,1043.08
2008,01,17,19,06,1043.18
2008,01,17,19,07,1043.21
2008,01,17,19,08,1043.21
2008,01,17,19,09,1043.31
2008,01,17,19,10,1043.35
2008,01,17,19,11,1043.35
2008,01,17,19,12,1043.38
2008,01,17,19,13,1043.45
2008,01,17,19,14,1043.48
2008,01,17,19,15,1043.48
2008,01,17,19,16,1043.58
2008,01,17,19,17,1043.62
2008,01,17,19,18,1043.65
2008,01,17,19,19,1043.72
2008,01,17,19,20,1043.75
2008,01,17,19,21,1043.75
2008,01,17,19,22,1043.85
2008,01,17,19,23,1043.89
2008,01,17,19,24,1043.89
2008,01,17,19,25,1043.96
2008,01,17,19,26,1043.99
2008,01,17,19,27,1044.06
2008,01,17,19,28,1044.13
2008,01,17,19,29,1044.13
2008,01,17,19,30,1044.16
2008,01,17,19,31,1044.13
2008,01,17,19,32,1044.16
2008,01,17,19,33,1044.16
2008,01,17,19,34,1044.23
2008,01,17,19,35,1044.29
2008,01,17,19,36,1044.29
2008,01,17,19,37,1044.33
2008,01,17,19,38,1044.33
2008,01,17,19,39,1044.33
2008,01,17,19,40,1044.36
2008,01,17,19,41,1044.36
2008,01,17,19,42,1044.36
2008,01,17,19,43,1044.36
2008,01,17,19,44,1044.19
2008,01,17,19,45,1044.19
2008,01,17,19,46,1044.06
2008,01,17,19,47,1044.02
2008,01,17,19,48,1043.89
2008,01,17,19,49,1043.75
2008,01,17,19,50,1043.70
2008,01,17,19,51,1043.58
2008,01,17,19,52,1043.55
2008,01,17,19,53,1043.52
2008,01,17,19,54,1043.45
2008,01,17,19,55,1043.35
2008,01,17,19,56,1043.38
2008,01,17,19,57,1043.41
2008,01,17,19,58,1043.35
2008,01,17,19,59,1043.35
2008,01,17,20,00,1043.38
2008,01,17,20,01,1043.38
2008,01,17,20,02,1043.35
2008,01,17,20,03,1043.38
2008,01,17,20,04,1043.48
2008,01,17,20,05,1043.55
2008,01,17,20,06,1043.55
2008,01,17,20,07,1043.62
2008,01,17,20,08,1043.65
2008,01,17,20,09,1043.69
2008,01,17,20,10,1043.72
2008,01,17,20,11,1043.69
2008,01,17,20,12,1043.75
2008,01,17,20,13,1043.79
2008,01,17,20,14,1043.79
2008,01,17,20,15,1043.79
2008,01,17,20,16,1043.79
2008,01,17,20,17,1043.85
2008,01,17,20,18,1043.91
2008,01,17,20,19,1043.96
2008,01,17,20,20,1043.92
2008,01,17,20,21,1044.06
2008,01,17,20,22,1044.09
2008,01,17,20,23,1044.09
2008,01,17,20,24,1044.13
2008,01,17,20,25,1044.23
2008,01,17,20,26,1044.26
2008,01,17,20,27,1044.29
2008,01,17,20,28,1044.43
2008,01,17,20,29,1044.43
2008,01,17,20,30,1044.50
2008,01,17,20,31,1044.57
2008,01,17,20,32,1044.60
2008,01,17,20,33,1044.74
2008,01,17,20,34,1044.80
2008,01,17,20,35,1044.90
2008,01,17,20,36,1044.97
2008,01,17,20,48,1044.94
2008,01,17,20,49,1044.77
2008,01,17,20,50,1044.57
2008,01,17,20,51,1044.29
2008,01,17,20,52,1044.13
2008,01,17,20,53,1043.85
2008,01,17,20,54,1043.72
2008,01,17,20,55,1043.58
2008,01,17,20,56,1043.41
2008,01,17,20,57,1043.25
2008,01,17,20,58,1043.18
2008,01,17,20,59,1043.14
2008,01,17,21,00,1043.14
2008,01,17,21,01,1043.14
2008,01,17,21,02,1043.14
2008,01,17,21,03,1043.14
2008,01,17,21,04,1043.14
2008,01,17,21,05,1043.21
2008,01,17,21,06,1043.31
2008,01,17,21,07,1043.35
2008,01,17,21,08,1043.52
2008,01,17,21,09,1043.58
2008,01,17,21,10,1043.69
2008,01,17,21,11,1043.75
2008,01,17,21,12,1043.82
2008,01,17,21,13,1043.89
2008,01,17,21,14,1043.96
2008,01,17,21,15,1044.09
2008,01,17,21,16,1044.19
2008,01,17,21,17,1044.23
2008,01,17,21,18,1044.36
2008,01,17,21,19,1044.43
2008,01,17,21,20,1044.53
2008,01,17,21,21,1044.60
2008,01,17,21,22,1044.67
2008,01,17,21,23,1044.67
2008,01,17,21,24,1044.77
2008,01,17,21,25,1044.84
2008,01,17,21,26,1044.87
2008,01,17,21,27,1044.97
2008,01,17,21,52,1044.97
2008,01,17,21,53,1044.94
2008,01,17,21,54,1044.87
2008,01,17,21,55,1044.70
2008,01,17,21,56,1044.70
2008,01,17,21,57,1044.61
2008,01,17,21,58,1044.54
2008,01,17,21,59,1044.53
2008,01,17,22,00,1044.53
2008,01,17,22,01,1044.44
2008,01,17,22,02,1044.46
2008,01,17,22,03,1044.43
2008,01,17,22,04,1044.43
2008,01,17,22,05,1044.46
2008,01,17,22,06,1044.57
2008,01,17,22,07,1044.57
2008,01,17,22,08,1044.57
2008,01,17,22,09,1044.60
2008,01,17,22,10,1044.63
2008,01,17,22,11,1044.70
2008,01,17,22,12,1044.70
2008,01,17,22,13,1044.79
2008,01,17,22,14,1044.80
2008,01,17,22,15,1044.84
2008,01,17,22,16,1044.87
2008,01,17,22,17,1044.97
2008,01,17,22,48,1044.97
2008,01,17,22,49,1044.79
2008,01,17,22,50,1044.68
2008,01,17,22,51,1044.46
2008,01,17,22,52,1044.36
2008,01,17,22,53,1044.23
2008,01,17,22,54,1044.23
2008,01,17,22,55,1044.16
2008,01,17,22,56,1044.13
2008,01,17,22,57,1044.16
2008,01,17,22,58,1044.23
2008,01,17,22,59,1044.26
2008,01,17,23,00,1044.29
2008,01,17,23,01,1044.40
2008,01,17,23,02,1044.40
2008,01,17,23,03,1044.53
2008,01,17,23,04,1044.57
2008,01,17,23,05,1044.69
2008,01,17,23,06,1044.74
2008,01,17,23,07,1044.83
2008,01,17,23,08,1044.89
2008,01,17,23,42,1044.94
2008,01,17,23,43,1044.80
2008,01,17,23,44,1044.70
2008,01,17,23,45,1044.57
2008,01,17,23,46,1044.53
2008,01,17,23,47,1044.43
2008,01,17,23,48,1044.43
2008,01,17,23,49,1044.40
2008,01,17,23,50,1044.46
2008,01,17,23,51,1044.46
2008,01,17,23,52,1044.53
2008,01,17,23,53,1044.60
2008,01,17,23,54,1044.70
2008,01,17,23,55,1044.77
2008,01,17,23,56,1044.84
2008,01,17,23,57,1044.94
2008,01,17,23,58,1044.97
